Voltar ao catálogo

COSMOS 2251 DEB

AtivoLEO
NORAD 36437·DEBRIS·🇷🇺 Russia

Lançado Jun 16, 1993 de Plesetsk Cosmodrome

Loading…

Próximas Passagens (próximas 24 horas)

TLE

AtualizadoSource: Space-Track

Época: Sep 14, 2026, 13:45 UTC

1 36437U 93036BAL 26257.57358352  .00006286  00000-0  93248-3 0  9995
2 36437  73.9397 213.2716 0018891   3.4865 356.6436 14.75155992701131

Acompanhe COSMOS 2251 DEB em tempo real com AllMySat

Download on the App Store